Time,TemperatureF,DewpointF,PressureIn,WindDirection,WindDirectionDegrees,WindSpeedMPH,WindSpeedGustMPH,Humidity,HourlyPrecipIn,Conditions,Clouds,dailyrainin,SolarRadiationWatts/m^2,SoftwareType,DateUTC
2013-04-29 00:01:00,39.0,31.0,-100.00,South,178,4.0,8.0,72,0.00,,,0.00,0.000000,,2013-04-29 07:01:00,
2013-04-29 00:32:00,38.0,34.0,-100.00,SSE,160,0.0,15.0,84,0.00,,,0.00,0.000000,,2013-04-29 07:32:00,
2013-04-29 00:42:00,38.0,34.0,-100.00,SSE,160,0.0,15.0,84,0.00,,,0.00,0.000000,,2013-04-29 07:42:00,
2013-04-29 00:52:00,38.0,34.0,-100.00,SSE,160,0.0,15.0,84,0.00,,,0.00,0.000000,,2013-04-29 07:52:00,
2013-04-29 01:02:00,38.0,34.0,-100.00,SSE,160,0.0,15.0,84,0.00,,,0.00,0.000000,,2013-04-29 08:02:00,
2013-04-29 01:32:00,37.0,34.0,-100.00,ENE,63,1.0,8.0,90,0.03,,,0.03,0.000000,,2013-04-29 08:32:00,
2013-04-29 01:42:00,37.0,34.0,-100.00,ENE,63,1.0,8.0,90,0.03,,,0.03,0.000000,,2013-04-29 08:42:00,
2013-04-29 01:52:00,37.0,34.0,-100.00,ENE,63,1.0,8.0,90,0.03,,,0.03,0.000000,,2013-04-29 08:52:00,
2013-04-29 02:01:00,37.0,34.0,-100.00,ENE,63,1.0,8.0,90,0.03,,,0.03,0.000000,,2013-04-29 09:01:00,
2013-04-29 02:33:00,35.0,34.0,-100.00,South,186,3.0,8.0,98,0.02,,,0.05,0.000000,,2013-04-29 09:33:00,
2013-04-29 02:42:00,35.0,34.0,-100.00,South,186,3.0,8.0,98,0.02,,,0.05,0.000000,,2013-04-29 09:42:00,
2013-04-29 02:53:00,35.0,34.0,-100.00,South,186,3.0,8.0,98,0.02,,,0.05,0.000000,,2013-04-29 09:53:00,
2013-04-29 03:02:00,35.0,34.0,-100.00,South,186,3.0,8.0,98,0.02,,,0.05,0.000000,,2013-04-29 10:02:00,
2013-04-29 03:32:00,37.0,36.0,-100.00,South,175,6.0,8.0,97,0.02,,,0.07,0.000000,,2013-04-29 10:32:00,
2013-04-29 03:42:00,37.0,36.0,-100.00,South,175,6.0,8.0,97,0.02,,,0.07,0.000000,,2013-04-29 10:42:00,
2013-04-29 03:52:00,37.0,36.0,-100.00,South,175,6.0,8.0,97,0.02,,,0.07,0.000000,,2013-04-29 10:52:00,
2013-04-29 04:02:00,37.0,36.0,-100.00,South,175,6.0,8.0,97,0.02,,,0.07,0.000000,,2013-04-29 11:02:00,
2013-04-29 04:32:00,38.0,36.0,-100.00,WSW,255,4.0,17.0,93,0.02,,,0.09,0.000000,,2013-04-29 11:32:00,
2013-04-29 04:42:00,38.0,36.0,-100.00,WSW,255,4.0,17.0,93,0.02,,,0.09,0.000000,,2013-04-29 11:42:00,
2013-04-29 04:52:00,38.0,36.0,-100.00,WSW,255,4.0,17.0,93,0.02,,,0.09,0.000000,,2013-04-29 11:52:00,
2013-04-29 05:01:00,38.0,36.0,-100.00,WSW,255,4.0,17.0,93,0.02,,,0.09,0.000000,,2013-04-29 12:01:00,
2013-04-29 06:32:00,32.0,29.0,-100.00,ESE,118,5.0,18.0,89,-99.99,,,0.10,2.000000,,2013-04-29 13:32:00,
2013-04-29 06:42:00,32.0,29.0,-100.00,ESE,118,5.0,18.0,89,-99.99,,,0.10,2.000000,,2013-04-29 13:42:00,
2013-04-29 06:52:00,32.0,29.0,-100.00,ESE,118,5.0,18.0,89,-99.99,,,0.10,2.000000,,2013-04-29 13:52:00,
2013-04-29 07:01:00,32.0,29.0,-100.00,ESE,118,5.0,18.0,89,-99.99,,,0.10,2.000000,,2013-04-29 14:01:00,
2013-04-29 07:32:00,33.0,31.0,-100.00,East,94,2.0,18.0,94,0.00,,,0.10,22.000000,,2013-04-29 14:32:00,
2013-04-29 07:42:00,33.0,31.0,-100.00,East,94,2.0,18.0,94,0.00,,,0.10,22.000000,,2013-04-29 14:42:00,
2013-04-29 07:52:00,33.0,31.0,-100.00,East,94,2.0,18.0,94,0.00,,,0.10,22.000000,,2013-04-29 14:52:00,
2013-04-29 08:01:00,33.0,31.0,-100.00,East,94,2.0,18.0,94,0.00,,,0.10,22.000000,,2013-04-29 15:01:00,
2013-04-29 08:33:00,32.0,30.0,-100.00,ENE,60,4.0,16.0,94,0.00,,,0.10,50.000000,,2013-04-29 15:33:00,
2013-04-29 08:43:00,32.0,30.0,-100.00,ENE,60,4.0,16.0,94,0.00,,,0.10,50.000000,,2013-04-29 15:43:00,
2013-04-29 08:53:00,32.0,30.0,-100.00,ENE,60,4.0,16.0,94,0.00,,,0.10,50.000000,,2013-04-29 15:53:00,
2013-04-29 09:02:00,32.0,30.0,-100.00,ENE,60,4.0,16.0,94,0.00,,,0.10,50.000000,,2013-04-29 16:02:00,
2013-04-29 09:33:00,33.0,31.0,-100.00,NW,308,4.0,20.0,92,0.00,,,0.10,87.000000,,2013-04-29 16:33:00,
2013-04-29 09:42:00,33.0,31.0,-100.00,NW,308,4.0,20.0,92,0.00,,,0.10,87.000000,,2013-04-29 16:42:00,
2013-04-29 09:52:00,33.0,31.0,-100.00,NW,308,4.0,20.0,92,0.00,,,0.10,87.000000,,2013-04-29 16:52:00,
2013-04-29 10:02:00,33.0,31.0,-100.00,NW,308,4.0,20.0,92,0.00,,,0.10,87.000000,,2013-04-29 17:02:00,
2013-04-29 10:32:00,34.0,33.0,-100.00,SSE,164,5.0,19.0,97,0.00,,,0.10,37.000000,,2013-04-29 17:32:00,
2013-04-29 10:42:00,34.0,33.0,-100.00,SSE,164,5.0,19.0,97,0.00,,,0.10,37.000000,,2013-04-29 17:42:00,
2013-04-29 10:52:00,34.0,33.0,-100.00,SSE,164,5.0,19.0,97,0.00,,,0.10,37.000000,,2013-04-29 17:52:00,
2013-04-29 11:01:00,34.0,33.0,-100.00,SSE,164,5.0,19.0,97,0.00,,,0.10,37.000000,,2013-04-29 18:01:00,
2013-04-29 13:32:00,42.0,33.0,-100.00,WSW,249,4.0,13.0,71,-99.99,,,0.27,959.000000,,2013-04-29 20:32:00,
2013-04-29 13:42:00,42.0,33.0,-100.00,WSW,249,4.0,13.0,71,-99.99,,,0.27,959.000000,,2013-04-29 20:42:00,
2013-04-29 13:52:00,42.0,33.0,-100.00,WSW,249,4.0,13.0,71,-99.99,,,0.27,959.000000,,2013-04-29 20:52:00,
2013-04-29 14:01:00,42.0,33.0,-100.00,WSW,249,4.0,13.0,71,-99.99,,,0.27,959.000000,,2013-04-29 21:01:00,
2013-04-29 15:32:00,41.0,29.0,-100.00,SE,132,6.0,20.0,62,-99.99,,,0.27,827.000000,,2013-04-29 22:32:00,
2013-04-29 15:42:00,41.0,29.0,-100.00,SE,132,6.0,20.0,62,-99.99,,,0.27,827.000000,,2013-04-29 22:42:00,
2013-04-29 15:52:00,41.0,29.0,-100.00,SE,132,6.0,20.0,62,-99.99,,,0.27,827.000000,,2013-04-29 22:52:00,
2013-04-29 16:02:00,41.0,29.0,-100.00,SE,132,6.0,20.0,62,-99.99,,,0.27,827.000000,,2013-04-29 23:02:00,
2013-04-29 16:32:00,45.0,30.0,-100.00,North,8,4.0,19.0,55,0.00,,,0.27,805.000000,,2013-04-29 23:32:00,
2013-04-29 17:01:00,45.0,30.0,-100.00,North,8,4.0,19.0,55,0.00,,,0.27,805.000000,,2013-04-30 00:01:00,